,,Stat6,,Stat2,,Stat8,,Stat9,,Stat10,,Wind1,,Wind1,
time,status,PA1M_AVG,status,PR1M_SUM,status,RH1M_AVG,status,SR1M_AVG,status,TA1M_AVG,status,W1dAve1m,status,W1sAve1m,
2004-01-28, 00:00:00,VALID,916.756,VALID,0,VALID,92.9619,VALID,0.0339617,VALID,20.3694,VALID,104,VALID,1.1557,
2004-01-28, 00:01:00,VALID,916.732,VALID,0,VALID,92.7953,VALID,0.0509425,VALID,20.3853,VALID,121,VALID,1.16673,
2004-01-28, 00:02:00,VALID,916.703,VALID,0,VALID,92.3897,VALID,0.0679233,VALID,20.4147,VALID,117,VALID,1.41797,
2004-01-28, 00:03:00,VALID,916.694,VALID,0,VALID,91.8099,VALID,0.0679233,VALID,20.4599,VALID,106,VALID,1.48018,
2004-01-28, 00:04:00,VALID,916.658,VALID,0,VALID,90.7252,VALID,0.0509425,VALID,20.5374,VALID,98,VALID,1.76079,
2004-01-28, 00:05:00,VALID,916.648,VALID,0,VALID,89.437,VALID,0.0509425,VALID,20.7021,VALID,99,VALID,1.54743,
2004-01-28, 00:06:00,VALID,916.64,VALID,0,VALID,88.5901,VALID,0.0509425,VALID,20.9026,VALID,91,VALID,1.27943,
2004-01-28, 00:07:00,VALID,916.624,VALID,0,VALID,88.0904,VALID,0.0509425,VALID,21.0025,VALID,106,VALID,1.14267,
2004-01-28, 00:08:00,VALID,916.61,VALID,0,VALID,87.8755,VALID,0.0509425,VALID,21.0736,VALID,99,VALID,0.874442,
2004-01-28, 00:09:00,VALID,916.587,VALID,0,VALID,87.7929,VALID,0.0679233,VALID,21.1024,VALID,108,VALID,0.945858,
2004-01-28, 00:10:00,VALID,916.577,VALID,0,VALID,87.7649,VALID,0.0849042,VALID,21.1223,VALID,102,VALID,0.9375,
2004-01-28, 00:11:00,VALID,916.56,VALID,0,VALID,87.8984,VALID,0.0849042,VALID,21.1156,VALID,114,VALID,1.55178,
2004-01-28, 00:12:00,VALID,916.537,VALID,0,VALID,88.1769,VALID,0.0679233,VALID,21.0733,VALID,117,VALID,0.906424,
2004-01-28, 00:13:00,VALID,916.514,VALID,0,VALID,88.6258,VALID,-0.0169808,VALID,21.0229,VALID,140,VALID,1.2748,
2004-01-28, 00:14:00,VALID,916.502,VALID,0,VALID,89.0683,VALID,-0.0679233,VALID,20.9551,VALID,103,VALID,1.23884,
2004-01-28, 00:15:00,VALID,916.486,VALID,0,VALID,89.8033,VALID,-0.0509425,VALID,20.8943,VALID,145,VALID,1.234,
2004-01-28, 00:16:00,VALID,916.499,VALID,0,VALID,90.2776,VALID,-0.0679233,VALID,20.8162,VALID,143,VALID,1.15547,
2004-01-28, 00:17:00,VALID,916.5,VALID,0,VALID,90.7404,VALID,-0.0169808,VALID,20.7481,VALID,144,VALID,1.39249,
2004-01-28, 00:18:00,VALID,916.518,VALID,0,VALID,91.169,VALID,-0.0339617,VALID,20.6803,VALID,142,VALID,1.66371,
2004-01-28, 00:19:00,VALID,916.536,VALID,0,VALID,91.4004,VALID,-0.0509425,VALID,20.6358,VALID,114,VALID,1.17649,
2004-01-28, 00:20:00,VALID,916.553,VALID,0,VALID,91.5962,VALID,-0.0509425,VALID,20.5906,VALID,130,VALID,1.14792,
2004-01-28, 00:21:00,VALID,916.572,VALID,0,VALID,91.6776,VALID,-0.0509425,VALID,20.5712,VALID,147,VALID,0.758929,
2004-01-28, 00:22:00,VALID,916.591,VALID,0,VALID,91.7793,VALID,-0.0509425,VALID,20.5618,VALID,145,VALID,0.892078,
2004-01-28, 00:23:00,VALID,916.602,VALID,0,VALID,91.8569,VALID,-0.0169808,VALID,20.5516,VALID,147,VALID,1.04616,
2004-01-28, 00:24:00,VALID,916.603,VALID,0,VALID,91.9752,VALID,-0.0169808,VALID,20.5449,VALID,144,VALID,1.08672,
2004-01-28, 00:25:00,VALID,916.588,VALID,0,VALID,92.2117,VALID,-0.0509425,VALID,20.5131,VALID,144,VALID,1.03871,
2004-01-28, 00:26:00,VALID,916.583,VALID,0,VALID,92.3821,VALID,-0.0339617,VALID,20.48,VALID,144,VALID,0.82867,
2004-01-28, 00:27:00,VALID,916.575,VALID,0,VALID,92.4851,VALID,-0.0169808,VALID,20.4515,VALID,140,VALID,0.899528,
2004-01-28, 00:28:00,VALID,916.558,VALID,0,VALID,92.5779,VALID,-0.0339617,VALID,20.4254,VALID,128,VALID,0.938281,
2004-01-28, 00:29:00,VALID,916.551,VALID,0,VALID,92.555,VALID,-0.0169808,VALID,20.406,VALID,123,VALID,0.840216,
2004-01-28, 00:30:00,VALID,916.529,VALID,0,VALID,92.5855,VALID,-0.0169808,VALID,20.3802,VALID,117,VALID,0.638021,
2004-01-28, 00:31:00,VALID,916.503,VALID,0,VALID,92.822,VALID,-0.0169808,VALID,20.3473,VALID,152,VALID,0.634448,
2004-01-28, 00:32:00,VALID,916.498,VALID,0,VALID,92.8907,VALID,-0.0339617,VALID,20.3508,VALID,155,VALID,0.296875,
2004-01-28, 00:33:00,VALID,916.479,VALID,0,VALID,92.9022,VALID,-0.0169808,VALID,20.3384,VALID,158,VALID,0.706555,
2004-01-28, 00:34:00,VALID,916.481,VALID,0,VALID,92.9085,VALID,-0.0509425,VALID,20.332,VALID,164,VALID,0.48544,
2004-01-28, 00:35:00,VALID,916.478,VALID,0,VALID,92.9492,VALID,-0.0169808,VALID,20.3218,VALID,160,VALID,0.756669,
2004-01-28, 00:36:00,VALID,916.488,VALID,0,VALID,92.9568,VALID,-0.0339617,VALID,20.329,VALID,155,VALID,0.680246,
2004-01-28, 00:37:00,VALID,916.493,VALID,0,VALID,92.953,VALID,0,VALID,20.3255,VALID,162,VALID,0.611806,
2004-01-28, 00:38:00,VALID,916.493,VALID,0,VALID,92.9568,VALID,-0.0339617,VALID,20.322,VALID,176,VALID,0.887718,
2004-01-28, 00:39:00,VALID,916.495,VALID,0,VALID,92.8666,VALID,-0.0169808,VALID,20.3287,VALID,178,VALID,0.993924,
2004-01-28, 00:40:00,VALID,916.483,VALID,0,VALID,92.8322,VALID,0,VALID,20.3384,VALID,171,VALID,0.769345,
2004-01-28, 00:41:00,VALID,916.476,VALID,0,VALID,92.8297,VALID,-0.0509425,VALID,20.3225,VALID,179,VALID,0.750401,
2004-01-28, 00:42:00,VALID,916.46,VALID,0,VALID,92.8831,VALID,0,VALID,20.3161,VALID,183,VALID,1.03193,
2004-01-28, 00:43:00,VALID,916.448,VALID,0,VALID,92.9149,VALID,-0.0169808,VALID,20.2935,VALID,184,VALID,0.903832,
2004-01-28, 00:44:00,VALID,916.422,VALID,0,VALID,92.9314,VALID,-0.0509425,VALID,20.2902,VALID,165,VALID,0.569196,
2004-01-28, 00:45:00,VALID,916.403,VALID,0,VALID,93.0039,VALID,-0.0679233,VALID,20.2706,VALID,152,VALID,0.654948,
2004-01-28, 00:46:00,VALID,916.37,VALID,0,VALID,93.1603,VALID,-0.0679233,VALID,20.2542,VALID,142,VALID,0.960565,
2004-01-28, 00:47:00,VALID,916.342,VALID,0,VALID,93.3243,VALID,-0.0679233,VALID,20.2353,VALID,138,VALID,1.00089,
2004-01-28, 00:48:00,VALID,916.311,VALID,0,VALID,93.3549,VALID,-0.0849042,VALID,20.2353,VALID,139,VALID,1.31765,
2004-01-28, 00:49:00,VALID,916.27,VALID,0,VALID,93.2379,VALID,-0.0339617,VALID,20.2485,VALID,143,VALID,0.969308,
2004-01-28, 00:50:00,VALID,916.231,VALID,0,VALID,92.9848,VALID,-0.0169808,VALID,20.2878,VALID,130,VALID,1.33175,
2004-01-28, 00:51:00,VALID,916.209,VALID,0,VALID,92.8081,VALID,-0.0339617,VALID,20.2967,VALID,127,VALID,1.30996,
2004-01-28, 00:52:00,VALID,916.178,VALID,0,VALID,92.6987,VALID,-0.0339617,VALID,20.3059,VALID,120,VALID,0.794034,
2004-01-28, 00:53:00,VALID,916.142,VALID,0,VALID,92.7547,VALID,-0.0339617,VALID,20.3064,VALID,118,VALID,1.44912,
2004-01-28, 00:54:00,VALID,916.123,VALID,0,VALID,92.7839,VALID,-0.0509425,VALID,20.3223,VALID,126,VALID,1.74141,
2004-01-28, 00:55:00,VALID,916.099,VALID,0,VALID,92.6962,VALID,-0.0169808,VALID,20.3516,VALID,119,VALID,1.47514,
2004-01-28, 00:56:00,VALID,916.083,VALID,0,VALID,92.6008,VALID,-0.0679233,VALID,20.3645,VALID,130,VALID,1.49461,
2004-01-28, 00:57:00,VALID,916.076,VALID,0,VALID,92.5804,VALID,-0.0679233,VALID,20.378,VALID,121,VALID,0.985119,
2004-01-28, 00:58:00,VALID,916.049,VALID,0,VALID,92.6466,VALID,-0.0509425,VALID,20.3715,VALID,113,VALID,0.914971,
2004-01-28, 00:59:00,VALID,916.041,VALID,0,VALID,92.7254,VALID,-0.0679233,VALID,20.3548,VALID,98,VALID,0.760789,
2004-01-28, 01:00:00,VALID,916.017,VALID,0,VALID,92.817,VALID,-0.0849042,VALID,20.3519,VALID,116,VALID,1.14971,
2004-01-28, 01:01:00,VALID,915.982,VALID,0,VALID,92.9696,VALID,-0.0849042,VALID,20.326,VALID,120,VALID,1.81001,
2004-01-28, 01:02:00,VALID,915.954,VALID,0,VALID,93.0624,VALID,-0.0509425,VALID,20.3128,VALID,108,VALID,1.46367,
2004-01-28, 01:03:00,VALID,915.934,VALID,0,VALID,93.1883,VALID,-0.0339617,VALID,20.28,VALID,101,VALID,1.69913,
2004-01-28, 01:04:00,VALID,915.919,VALID,0,VALID,93.3854,VALID,-0.0509425,VALID,20.255,VALID,99,VALID,1.35831,
2004-01-28, 01:05:00,VALID,915.9,VALID,0,VALID,93.5685,VALID,-0.101885,VALID,20.2162,VALID,96,VALID,1.31684,
2004-01-28, 01:06:00,VALID,915.865,VALID,0,VALID,93.7401,VALID,-0.0849042,VALID,20.1968,VALID,103,VALID,1.69043,
2004-01-28, 01:07:00,VALID,915.858,VALID,0,VALID,93.8431,VALID,-0.0509425,VALID,20.1869,VALID,107,VALID,1.8766,
2004-01-28, 01:08:00,VALID,915.836,VALID,0,VALID,93.9156,VALID,-0.0849042,VALID,20.1675,VALID,95,VALID,1.33394,
2004-01-28, 01:09:00,VALID,915.816,VALID,0,VALID,93.9995,VALID,-0.0509425,VALID,20.161,VALID,103,VALID,1.3649,
2004-01-28, 01:10:00,VALID,915.807,VALID,0,VALID,94.161,VALID,-0.0509425,VALID,20.1616,VALID,110,VALID,1.88758,
2004-01-28, 01:11:00,VALID,915.788,VALID,0,VALID,94.1293,VALID,-0.0509425,VALID,20.1479,VALID,86,VALID,1.03373,
2004-01-28, 01:12:00,VALID,915.789,VALID,0,VALID,94.189,VALID,-0.0679233,VALID,20.1352,VALID,81,VALID,0.908794,
2004-01-28, 01:13:00,VALID,915.778,VALID,0,VALID,94.2551,VALID,-0.0509425,VALID,20.1322,VALID,106,VALID,1.5543,
2004-01-28, 01:14:00,VALID,915.786,VALID,0,VALID,94.2272,VALID,-0.0509425,VALID,20.1327,VALID,124,VALID,1.24531,
2004-01-28, 01:15:00,VALID,915.792,VALID,0,VALID,94.2399,VALID,-0.0339617,VALID,20.1129,VALID,116,VALID,1.48847,
2004-01-28, 01:16:00,VALID,915.828,VALID,0,VALID,94.2958,VALID,-0.0679233,VALID,20.0997,VALID,118,VALID,1.27912,
2004-01-28, 01:17:00,VALID,915.835,VALID,0,VALID,94.2615,VALID,-0.101885,VALID,20.1032,VALID,124,VALID,1.40124,
2004-01-28, 01:18:00,VALID,915.865,VALID,0,VALID,94.2297,VALID,-0.0679233,VALID,20.1101,VALID,133,VALID,1.70217,
2004-01-28, 01:19:00,VALID,915.873,VALID,0,VALID,94.128,VALID,-0.101885,VALID,20.1419,VALID,143,VALID,1.26639,
2004-01-28, 01:20:00,VALID,915.882,VALID,0,VALID,93.9665,VALID,-0.0849042,VALID,20.171,VALID,162,VALID,0.96439,
2004-01-28, 01:21:00,VALID,915.893,VALID,0,VALID,93.8114,VALID,-0.0509425,VALID,20.1933,VALID,238,VALID,0.545201,
2004-01-28, 01:22:00,VALID,915.905,VALID,0,VALID,93.7732,VALID,-0.0849042,VALID,20.1936,VALID,240,VALID,0.798177,
2004-01-28, 01:23:00,VALID,915.927,VALID,0,VALID,93.9589,VALID,-0.0679233,VALID,20.1683,VALID,244,VALID,1.01599,
2004-01-28, 01:24:00,VALID,915.965,VALID,0,VALID,94.2323,VALID,-0.0679233,VALID,20.136,VALID,258,VALID,0.765262,
2004-01-28, 01:25:00,VALID,915.985,VALID,0,VALID,94.4472,VALID,-0.101885,VALID,20.0835,VALID,252,VALID,1.07254,
2004-01-28, 01:26:00,VALID,915.997,VALID,0,VALID,94.7333,VALID,-0.0339617,VALID,20.0453,VALID,277,VALID,1.30301,
2004-01-28, 01:27:00,VALID,915.997,VALID,0,VALID,94.9164,VALID,-0.0849042,VALID,19.9963,VALID,284,VALID,0.954215,
2004-01-28, 01:28:00,VALID,916.005,VALID,0,VALID,95.0245,VALID,-0.0679233,VALID,20.0033,VALID,257,VALID,0.482337,
2004-01-28, 01:29:00,VALID,916.014,VALID,0,VALID,95.0957,VALID,-0.0679233,VALID,20.0001,VALID,233,VALID,0.570499,
2004-01-28, 01:30:00,VALID,916.025,VALID,0,VALID,95.0995,VALID,-0.0339617,VALID,19.9703,VALID,234,VALID,0.904204,
2004-01-28, 01:31:00,VALID,916.062,VALID,0,VALID,95.3246,VALID,-0.0849042,VALID,19.9489,VALID,251,VALID,0.931597,
2004-01-28, 01:32:00,VALID,916.069,VALID,0,VALID,95.5929,VALID,-0.0509425,VALID,19.9059,VALID,234,VALID,0.882241,
2004-01-28, 01:33:00,VALID,916.09,VALID,0,VALID,95.8307,VALID,-0.0509425,VALID,19.897,VALID,253,VALID,1.31002,
2004-01-28, 01:34:00,VALID,916.098,VALID,0,VALID,96.0036,VALID,-0.0339617,VALID,19.8836,VALID,247,VALID,1.04137,
2004-01-28, 01:35:00,VALID,916.111,VALID,0,VALID,96.0977,VALID,-0.0339617,VALID,19.8836,VALID,252,VALID,1.24492,
2004-01-28, 01:36:00,VALID,916.112,VALID,0,VALID,96.0748,VALID,-0.0679233,VALID,19.9094,VALID,250,VALID,1.17932,
2004-01-28, 01:37:00,VALID,916.105,VALID,0,VALID,95.9566,VALID,-0.0849042,VALID,19.9449,VALID,262,VALID,0.71733,
2004-01-28, 01:38:00,VALID,916.093,VALID,0,VALID,95.8624,VALID,-0.0849042,VALID,19.9514,VALID,250,VALID,0.674293,
2004-01-28, 01:39:00,VALID,916.099,VALID,0,VALID,95.8129,VALID,-0.0339617,VALID,19.9745,VALID,250,VALID,0.688408,
2004-01-28, 01:40:00,VALID,916.088,VALID,0,VALID,95.6806,VALID,-0.0679233,VALID,20.0033,VALID,218,VALID,0.454013,
2004-01-28, 01:41:01,VALID,916.09,VALID,0,VALID,95.4988,VALID,-0.0169808,VALID,20.055,VALID,206,VALID,0.331499,
2004-01-28, 01:42:00,VALID,916.081,VALID,0,VALID,95.2788,VALID,-0.0679233,VALID,20.1037,VALID,206,VALID,0.280273,
2004-01-28, 01:43:00,VALID,916.09,VALID,0,VALID,95.1376,VALID,0.0509425,VALID,20.1056,VALID,206,VALID,0.0133929,
2004-01-28, 01:44:00,VALID,916.086,VALID,0,VALID,95.0474,VALID,0.0679233,VALID,20.1215,VALID,206,VALID,0.0349702,
2004-01-28, 01:45:00,VALID,916.096,VALID,0,VALID,95.0181,VALID,0.0679233,VALID,20.1277,VALID,202,VALID,0.368278,
2004-01-28, 01:46:00,VALID,916.096,VALID,0,VALID,95.013,VALID,0.0339617,VALID,20.1342,VALID,139,VALID,0.263317,
2004-01-28, 01:47:00,VALID,916.104,VALID,0,VALID,95.0041,VALID,0.0679233,VALID,20.1339,VALID,138,VALID,0.0262957,
2004-01-28, 01:48:00,VALID,916.108,VALID,0,VALID,94.9075,VALID,0.0679233,VALID,20.1439,VALID,138,VALID,0.22093,
2004-01-28, 01:49:00,VALID,916.111,VALID,0,VALID,94.882,VALID,0.0169808,VALID,20.1568,VALID,138,VALID,0.158482,
2004-01-28, 01:50:00,VALID,916.128,VALID,0,VALID,94.8477,VALID,0.0509425,VALID,20.1633,VALID,86,VALID,0.417614,
2004-01-28, 01:51:00,VALID,916.109,VALID,0,VALID,94.8019,VALID,0.0849042,VALID,20.1498,VALID,71,VALID,0.159091,
2004-01-28, 01:52:00,VALID,916.106,VALID,0,VALID,94.9647,VALID,0.0849042,VALID,20.1565,VALID,71,VALID,0,
2004-01-28, 01:53:00,VALID,916.097,VALID,0,VALID,94.9329,VALID,0,VALID,20.1469,VALID,70,VALID,0.254112,
2004-01-28, 01:54:01,VALID,916.094,VALID,0,VALID,95.1376,VALID,0.0509425,VALID,20.1441,VALID,53,VALID,0.568452,
2004-01-28, 01:55:00,VALID,916.068,VALID,0,VALID,95.2139,VALID,0.0679233,VALID,20.1377,VALID,37,VALID,0.933499,
2004-01-28, 01:56:00,VALID,916.05,VALID,0,VALID,95.2343,VALID,0.0509425,VALID,20.1118,VALID,28,VALID,1.21591,
2004-01-28, 01:57:00,VALID,916.03,VALID,0,VALID,95.1313,VALID,0,VALID,20.1022,VALID,27,VALID,1.4314,
2004-01-28, 01:58:00,VALID,915.991,VALID,0,VALID,95.1224,VALID,0.0339617,VALID,20.0793,VALID,36,VALID,1.39371,
2004-01-28, 01:59:00,VALID,915.978,VALID,0,VALID,95.2101,VALID,0.0339617,VALID,20.0467,VALID,36,VALID,1.57347,
2004-01-28, 02:00:00,VALID,915.948,VALID,0,VALID,95.2966,VALID,0.0169808,VALID,20.0373,VALID,37,VALID,1.62388,
2004-01-28, 02:01:00,VALID,915.899,VALID,0,VALID,95.3703,VALID,0.0509425,VALID,20.0236,VALID,46,VALID,1.62926,
2004-01-28, 02:02:00,VALID,915.883,VALID,0,VALID,95.3831,VALID,0.0339617,VALID,20.0309,VALID,57,VALID,1.4426,
2004-01-28, 02:03:01,VALID,915.838,VALID,0,VALID,95.3144,VALID,0.0679233,VALID,20.0341,VALID,71,VALID,1.62418,
2004-01-28, 02:04:00,VALID,915.816,VALID,0,VALID,95.2953,VALID,0.0679233,VALID,20.0112,VALID,69,VALID,1.49182,
2004-01-28, 02:05:00,VALID,915.77,VALID,0,VALID,95.4021,VALID,0.0509425,VALID,19.9859,VALID,63,VALID,1.67607,
2004-01-28, 02:06:00,VALID,915.748,VALID,0,VALID,95.4911,VALID,0.0679233,VALID,19.963,VALID,57,VALID,1.36944,
2004-01-28, 02:07:00,VALID,915.758,VALID,0,VALID,95.5662,VALID,0.0339617,VALID,19.9402,VALID,66,VALID,1.28143,
2004-01-28, 02:08:00,VALID,915.745,VALID,0,VALID,95.5827,VALID,0.0679233,VALID,19.9206,VALID,77,VALID,1.21979,
2004-01-28, 02:09:00,VALID,915.743,VALID,0,VALID,95.5255,VALID,0.0679233,VALID,19.9273,VALID,80,VALID,1.34854,
2004-01-28, 02:10:01,VALID,915.743,VALID,0,VALID,95.3716,VALID,0.0849042,VALID,19.9305,VALID,70,VALID,1.42805,
2004-01-28, 02:11:00,VALID,915.731,VALID,0,VALID,95.1949,VALID,0.0679233,VALID,19.9692,VALID,37,VALID,0.853981,
2004-01-28, 02:12:00,VALID,915.737,VALID,0,VALID,95.0563,VALID,0.0679233,VALID,19.9921,VALID,60,VALID,0.357171,
2004-01-28, 02:13:00,VALID,915.728,VALID,0,VALID,94.9533,VALID,0,VALID,19.9988,VALID,61,VALID,0.251635,
2004-01-28, 02:14:01,VALID,915.716,VALID,0,VALID,94.8592,VALID,-0.0679233,VALID,20.0289,VALID,61,VALID,0.269903,
2004-01-28, 02:15:00,VALID,915.716,VALID,0,VALID,94.7549,VALID,-0.0679233,VALID,20.0453,VALID,61,VALID,0.11258,
2004-01-28, 02:16:00,VALID,915.7,VALID,0,VALID,94.6862,VALID,-0.0339617,VALID,20.0676,VALID,61,VALID,0.108803,
2004-01-28, 02:17:01,VALID,915.68,VALID,0,VALID,94.6277,VALID,-0.0169808,VALID,20.0932,VALID,61,VALID,0.295015,
2004-01-28, 02:18:00,VALID,915.66,VALID,0,VALID,94.4751,VALID,-0.0509425,VALID,20.1298,VALID,61,VALID,0.271257,
2004-01-28, 02:19:00,VALID,915.634,VALID,0,VALID,94.3416,VALID,-0.0169808,VALID,20.1389,VALID,63,VALID,0.425877,
2004-01-28, 02:20:00,VALID,915.589,VALID,0,VALID,94.2462,VALID,-0.0169808,VALID,20.1446,VALID,66,VALID,0.505526,
2004-01-28, 02:21:00,VALID,915.562,VALID,0,VALID,94.4077,VALID,-0.0339617,VALID,20.1519,VALID,90,VALID,0.841542,
2004-01-28, 02:22:00,VALID,915.533,VALID,0,VALID,94.4154,VALID,-0.0169808,VALID,20.135,VALID,114,VALID,1.14304,
2004-01-28, 02:23:00,VALID,915.504,VALID,0,VALID,94.6163,VALID,0,VALID,20.0962,VALID,124,VALID,1.31395,
2004-01-28, 02:24:00,VALID,915.474,VALID,0,VALID,94.9024,VALID,0,VALID,20.0676,VALID,130,VALID,1.25908,
2004-01-28, 02:25:00,VALID,915.464,VALID,0,VALID,95.0295,VALID,-0.0339617,VALID,20.0483,VALID,131,VALID,1.31343,
2004-01-28, 02:26:00,VALID,915.44,VALID,0,VALID,95.1046,VALID,-0.0169808,VALID,20.0545,VALID,134,VALID,1.29358,
2004-01-28, 02:27:01,VALID,915.421,VALID,0,VALID,95.1313,VALID,-0.0169808,VALID,20.0582,VALID,127,VALID,1.00238,
2004-01-28, 02:28:00,VALID,915.404,VALID,0,VALID,95.205,VALID,-0.0169808,VALID,20.0386,VALID,127,VALID,0.943056,
2004-01-28, 02:29:01,VALID,915.365,VALID,0,VALID,95.2839,VALID,-0.0339617,VALID,20.0324,VALID,129,VALID,0.969815,
2004-01-28, 02:30:00,VALID,915.356,VALID,0,VALID,95.3754,VALID,-0.0679233,VALID,20.0162,VALID,126,VALID,1.05888,
2004-01-28, 02:31:00,VALID,914.899,VALID,0,VALID,95.4288,VALID,-0.0339617,VALID,19.9968,VALID,112,VALID,0.97745,
2004-01-28, 02:32:01,VALID,915.334,VALID,0,VALID,95.3996,VALID,-0.0509425,VALID,19.9934,VALID,118,VALID,0.830208,
2004-01-28, 02:33:00,VALID,915.357,VALID,0,VALID,95.3436,VALID,-0.0509425,VALID,19.9931,VALID,121,VALID,0.730945,
2004-01-28, 02:34:00,VALID,915.349,VALID,0,VALID,95.1402,VALID,-0.0509425,VALID,20.0331,VALID,121,VALID,0.484738,
2004-01-28, 02:35:00,VALID,915.358,VALID,0,VALID,94.9494,VALID,-0.0339617,VALID,20.0577,VALID,121,VALID,0,
2004-01-28, 02:36:00,VALID,915.353,VALID,0,VALID,94.8286,VALID,-0.0339617,VALID,20.0738,VALID,121,VALID,0,
2004-01-28, 02:37:00,VALID,915.357,VALID,0,VALID,94.6964,VALID,-0.0509425,VALID,20.0838,VALID,121,VALID,0,
2004-01-28, 02:38:00,VALID,915.362,VALID,0,VALID,94.7167,VALID,-0.0339617,VALID,20.084,VALID,121,VALID,0,
2004-01-28, 02:39:01,VALID,915.369,VALID,0,VALID,94.7002,VALID,-0.0339617,VALID,20.09,VALID,121,VALID,0.126776,
2004-01-28, 02:40:01,VALID,915.365,VALID,0,VALID,94.7536,VALID,-0.0509425,VALID,20.0935,VALID,121,VALID,0.227095,
2004-01-28, 02:41:00,VALID,915.375,VALID,0,VALID,94.7816,VALID,0,VALID,20.0997,VALID,121,VALID,0.0331555,
2004-01-28, 02:42:01,VALID,915.362,VALID,0,VALID,94.8007,VALID,-0.0509425,VALID,20.1196,VALID,121,VALID,0.100109,
2004-01-28, 02:43:00,VALID,915.353,VALID,0,VALID,94.8032,VALID,0.0169808,VALID,20.1121,VALID,121,VALID,0.321221,
2004-01-28, 02:44:00,VALID,915.361,VALID,0,VALID,94.8515,VALID,0.0339617,VALID,20.1143,VALID,179,VALID,0.324673,
2004-01-28, 02:45:00,VALID,915.355,VALID,0,VALID,94.807,VALID,0.0679233,VALID,20.1108,VALID,190,VALID,0.399346,
2004-01-28, 02:46:00,VALID,915.355,VALID,0,VALID,94.821,VALID,0.0339617,VALID,20.1151,VALID,194,VALID,0.519622,
2004-01-28, 02:47:00,VALID,915.358,VALID,0,VALID,94.8363,VALID,0.0339617,VALID,20.1151,VALID,219,VALID,0.661685,
2004-01-28, 02:48:00,VALID,915.362,VALID,0,VALID,94.8108,VALID,0.0679233,VALID,20.125,VALID,240,VALID,0.80907,
2004-01-28, 02:49:00,VALID,915.347,VALID,0,VALID,94.6977,VALID,0.0169808,VALID,20.1576,VALID,250,VALID,1.11967,
2004-01-28, 02:50:00,VALID,915.344,VALID,0,VALID,94.5006,VALID,0,VALID,20.1928,VALID,252,VALID,1.0566,
2004-01-28, 02:51:00,VALID,915.349,VALID,0,VALID,94.3874,VALID,0,VALID,20.209,VALID,253,VALID,0.646484,
2004-01-28, 02:52:00,VALID,915.335,VALID,0,VALID,94.3276,VALID,0.0339617,VALID,20.2117,VALID,267,VALID,0.797805,
2004-01-28, 02:53:00,VALID,915.32,VALID,0,VALID,94.3111,VALID,0,VALID,20.2152,VALID,278,VALID,0.514436,
2004-01-28, 02:54:01,VALID,915.327,VALID,0,VALID,94.4205,VALID,0.0339617,VALID,20.2286,VALID,278,VALID,0.450921,
2004-01-28, 02:55:01,VALID,915.305,VALID,0,VALID,94.4586,VALID,0.0169808,VALID,20.2219,VALID,278,VALID,0.399709,
2004-01-28, 02:56:00,VALID,915.309,VALID,0,VALID,94.381,VALID,0,VALID,20.2453,VALID,274,VALID,0.445668,
2004-01-28, 02:57:01,VALID,915.303,VALID,0,VALID,94.2818,VALID,0.0169808,VALID,20.2517,VALID,272,VALID,0.0838068,
2004-01-28, 02:58:00,VALID,915.296,VALID,0,VALID,94.2068,VALID,0.0339617,VALID,20.2607,VALID,266,VALID,0.348366,
2004-01-28, 02:59:00,VALID,915.303,VALID,0,VALID,94.1928,VALID,0.0509425,VALID,20.2636,VALID,259,VALID,0.199023,
2004-01-28, 03:00:00,VALID,915.293,VALID,0,VALID,94.2653,VALID,0.0169808,VALID,20.2768,VALID,259,VALID,0.00609756,
2004-01-28, 03:01:01,VALID,915.299,VALID,0,VALID,94.2615,VALID,0.0509425,VALID,20.286,VALID,259,VALID,0.0875727,
2004-01-28, 03:02:00,VALID,915.287,VALID,0,VALID,94.2106,VALID,0.0339617,VALID,20.2862,VALID,259,VALID,0.437847,
2004-01-28, 03:03:00,VALID,915.296,VALID,0,VALID,94.2717,VALID,0,VALID,20.2768,VALID,259,VALID,0.263719,
2004-01-28, 03:04:01,VALID,915.286,VALID,0,VALID,94.306,VALID,0.0169808,VALID,20.2895,VALID,259,VALID,0.250191,
2004-01-28, 03:05:00,VALID,915.28,VALID,0,VALID,94.2679,VALID,0,VALID,20.286,VALID,259,VALID,0.293501,
2004-01-28, 03:06:00,VALID,915.291,VALID,0,VALID,94.2145,VALID,0,VALID,20.3096,VALID,259,VALID,0.335392,
2004-01-28, 03:07:00,VALID,915.271,VALID,0,VALID,94.2628,VALID,-0.0169808,VALID,20.3034,VALID,259,VALID,0.084375,
2004-01-28, 03:08:00,VALID,915.284,VALID,0,VALID,94.292,VALID,0.0169808,VALID,20.2992,VALID,259,VALID,0.2141,
2004-01-28, 03:09:00,VALID,915.276,VALID,0,VALID,94.2348,VALID,0,VALID,20.3026,VALID,259,VALID,0.0432413,
2004-01-28, 03:10:00,VALID,915.274,VALID,0,VALID,94.4065,VALID,0,VALID,20.3123,VALID,259,VALID,0.0525073,
2004-01-28, 03:11:00,VALID,915.28,VALID,0,VALID,94.4624,VALID,0,VALID,20.3255,VALID,259,VALID,0.196429,
2004-01-28, 03:12:00,VALID,915.267,VALID,0,VALID,94.484,VALID,0,VALID,20.3253,VALID,308,VALID,0.365589,
2004-01-28, 03:13:00,VALID,915.269,VALID,0,VALID,94.5018,VALID,0,VALID,20.2927,VALID,41,VALID,0.781072,
2004-01-28, 03:14:00,VALID,915.27,VALID,0,VALID,94.5985,VALID,0,VALID,20.2738,VALID,47,VALID,1.1635,
2004-01-28, 03:15:00,VALID,915.255,VALID,0,VALID,94.7969,VALID,0,VALID,20.2154,VALID,48,VALID,1.28125,
2004-01-28, 03:16:01,VALID,915.238,VALID,0,VALID,95.0168,VALID,0,VALID,20.1603,VALID,48,VALID,1.26023,
2004-01-28, 03:17:00,VALID,915.235,VALID,0,VALID,95.1504,VALID,0.0169808,VALID,20.1312,VALID,50,VALID,0.938408,
2004-01-28, 03:18:00,VALID,915.222,VALID,0,VALID,95.2216,VALID,0.0339617,VALID,20.1446,VALID,50,VALID,0.837847,
2004-01-28, 03:19:01,VALID,915.207,VALID,0,VALID,95.2355,VALID,0.0169808,VALID,20.1086,VALID,55,VALID,0.612926,
2004-01-28, 03:20:01,VALID,915.2,VALID,0,VALID,95.3576,VALID,0.0509425,VALID,20.093,VALID,55,VALID,0.657812,
2004-01-28, 03:21:00,VALID,915.191,VALID,0,VALID,95.5535,VALID,0,VALID,20.0803,VALID,55,VALID,0.619855,
2004-01-28, 03:22:00,VALID,915.208,VALID,0,VALID,95.7315,VALID,0.0169808,VALID,20.0438,VALID,55,VALID,0.601172,
2004-01-28, 03:23:00,VALID,915.222,VALID,0,VALID,95.7671,VALID,0.0169808,VALID,20.048,VALID,55,VALID,0.695833,
2004-01-28, 03:24:00,VALID,915.206,VALID,0,VALID,95.7722,VALID,0,VALID,20.0217,VALID,55,VALID,0.57758,
2004-01-28, 03:25:00,VALID,915.208,VALID,0,VALID,95.8879,VALID,0,VALID,19.9988,VALID,55,VALID,0.528045,
2004-01-28, 03:26:01,VALID,915.194,VALID,0,VALID,95.8764,VALID,0.0169808,VALID,19.9889,VALID,55,VALID,0.375355,
2004-01-28, 03:27:01,VALID,915.182,VALID,0,VALID,95.8841,VALID,0.0339617,VALID,19.9956,VALID,55,VALID,0.313643,
2004-01-28, 03:28:01,VALID,915.152,VALID,0,VALID,95.9451,VALID,-0.0339617,VALID,19.9867,VALID,55,VALID,0.255859,
2004-01-28, 03:29:00,VALID,915.14,VALID,0,VALID,96.015,VALID,-0.0849042,VALID,20.0105,VALID,82,VALID,0.444222,
2004-01-28, 03:30:00,VALID,915.119,VALID,0,VALID,95.9845,VALID,-0.0849042,VALID,20.0001,VALID,107,VALID,0.576215,
2004-01-28, 03:31:00,VALID,915.108,VALID,0,VALID,95.9756,VALID,-0.0849042,VALID,20.0003,VALID,122,VALID,0.591797,
2004-01-28, 03:32:01,VALID,915.09,VALID,0,VALID,95.9782,VALID,-0.101885,VALID,20.0197,VALID,132,VALID,0.689977,
2004-01-28, 03:33:00,VALID,915.089,VALID,0,VALID,95.9527,VALID,-0.0849042,VALID,20.0331,VALID,149,VALID,0.844122,